EDW329Z LSZH-BIKF

Flight info

Callsign EDW329Z
Flight time N/A
Altitude 36000
Route VEBIT T10 TORPA DCT EDOPI DCT GIVOR DCT SORAL DCT IBERA DCT RITAX DCT BUB DCT VICOT DCT TULIP DCT TOPPA DCT LARDI DCT CUTEL DCT ODMIX DCT MOCHA DCT NALAN/M077F360 DCT 62N010W DCT ALDAN DCT ASRUN ASRUN4N
Aircraft A320/M-SDE3FGHIRWY/LB1

Departure

Time 2026-05-01 14:00
Airport Zürich Airport (LSZH)

Arrival

Time N/A
Airport Keflavik International Airport (BIKF)
Time Latitude Longitude Altitude Speed Heading
2026-05-01 13:41 47.44652 8.56476 1402 ft 0 kts 335°
2026-05-01 13:41 47.44649 8.56477 1401 ft 0 kts 335°
2026-05-01 13:50 47.44647 8.56479 1400 ft 2 kts 335°
2026-05-01 13:50 47.44624 8.56495 1406 ft 3 kts 335°
2026-05-01 13:51 47.44605 8.56509 1407 ft 4 kts 331°
2026-05-01 13:51 47.44581 8.56529 1407 ft 4 kts 327°
2026-05-01 13:51 47.44559 8.56550 1407 ft 4 kts 330°
2026-05-01 13:51 47.44540 8.56564 1407 ft 4 kts 335°
2026-05-01 13:52 47.44531 8.56570 1407 ft 0 kts 335°
2026-05-01 13:53 47.44542 8.56563 1404 ft 7 kts 335°
2026-05-01 13:53 47.44562 8.56479 1400 ft 10 kts 247°
2026-05-01 13:54 47.44535 8.56390 1398 ft 10 kts 245°
2026-05-01 13:54 47.44506 8.56304 1404 ft 12 kts 244°
2026-05-01 13:54 47.44544 8.56207 1403 ft 13 kts 337°
2026-05-01 13:54 47.44625 8.56156 1400 ft 13 kts 337°
2026-05-01 13:55 47.44705 8.56098 1402 ft 13 kts 334°
2026-05-01 13:55 47.44803 8.56029 1399 ft 19 kts 335°
2026-05-01 13:55 47.44923 8.55947 1401 ft 16 kts 332°
2026-05-01 13:55 47.44957 8.55809 1402 ft 14 kts 288°
2026-05-01 13:56 47.45024 8.55730 1399 ft 12 kts 332°
2026-05-01 13:56 47.45090 8.55678 1403 ft 10 kts 332°
2026-05-01 13:56 47.45193 8.55610 1402 ft 20 kts 337°
2026-05-01 13:56 47.45324 8.55545 1402 ft 20 kts 331°
2026-05-01 13:57 47.45453 8.55459 1402 ft 21 kts 338°
2026-05-01 13:57 47.45523 8.55524 1397 ft 14 kts 94°
2026-05-01 13:57 47.45513 8.55684 1397 ft 18 kts 96°
2026-05-01 13:57 47.45500 8.55873 1397 ft 19 kts 95°
2026-05-01 13:58 47.45487 8.56070 1401 ft 20 kts 95°
2026-05-01 13:58 47.45501 8.56260 1402 ft 19 kts 54°
2026-05-01 13:58 47.45585 8.56413 1402 ft 19 kts 54°
2026-05-01 13:58 47.45584 8.56591 1399 ft 18 kts 97°
2026-05-01 13:59 47.45572 8.56774 1399 ft 18 kts 94°
2026-05-01 13:59 47.45564 8.56961 1400 ft 17 kts 74°
2026-05-01 13:59 47.45644 8.57014 1413 ft 12 kts 330°
2026-05-01 13:59 47.45670 8.56908 1406 ft 13 kts 276°
2026-05-01 14:00 47.45699 8.56513 1404 ft 76 kts 277°
2026-05-01 14:00 47.45781 8.55397 1400 ft 139 kts 276°
2026-05-01 14:00 47.45896 8.53757 1584 ft 170 kts 278°
2026-05-01 14:00 47.46024 8.52010 2313 ft 171 kts 277°
2026-05-01 14:01 47.46149 8.50251 2975 ft 179 kts 277°
2026-05-01 14:01 47.46222 8.48295 3390 ft 202 kts 262°
2026-05-01 14:01 47.45540 8.46415 3575 ft 223 kts 222°
2026-05-01 14:01 47.44295 8.44868 3842 ft 246 kts 220°
2026-05-01 14:02 47.43028 8.43003 4260 ft 266 kts 230°
2026-05-01 14:02 47.41871 8.40827 4830 ft 272 kts 234°
2026-05-01 14:02 47.40769 8.38568 4965 ft 270 kts 236°
2026-05-01 14:02 47.39688 8.36307 4997 ft 269 kts 236°
2026-05-01 14:03 47.38636 8.34031 5003 ft 269 kts 243°
2026-05-01 14:03 47.37925 8.31454 5533 ft 272 kts 248°
2026-05-01 14:03 47.37123 8.28929 6461 ft 272 kts 243°
2026-05-01 14:03 47.36233 8.26462 7278 ft 275 kts 241°
2026-05-01 14:04 47.35300 8.23979 8031 ft 279 kts 240°
2026-05-01 14:04 47.34355 8.21463 8768 ft 283 kts 240°
2026-05-01 14:04 47.33405 8.18897 9487 ft 287 kts 240°
2026-05-01 14:04 47.32451 8.16280 10212 ft 292 kts 240°
2026-05-01 14:05 47.31481 8.13588 10617 ft 308 kts 240°
2026-05-01 14:05 47.30443 8.10692 10805 ft 331 kts 241°
2026-05-01 14:05 47.29365 8.07672 11243 ft 342 kts 240°
2026-05-01 14:05 47.28269 8.04531 11880 ft 347 kts 244°
2026-05-01 14:06 47.27508 8.01130 12532 ft 353 kts 257°
2026-05-01 14:06 47.27256 7.97513 13177 ft 358 kts 270°
2026-05-01 14:06 47.27511 7.93803 13838 ft 363 kts 277°
2026-05-01 14:06 47.27879 7.90109 14446 ft 366 kts 277°
2026-05-01 14:07 47.28239 7.86432 15035 ft 369 kts 277°
2026-05-01 14:07 47.28600 7.82671 15601 ft 373 kts 277°
2026-05-01 14:07 47.28960 7.78874 16174 ft 376 kts 277°
2026-05-01 14:08 47.29676 7.71190 17336 ft 381 kts 277°
2026-05-01 14:08 47.30036 7.67307 17896 ft 384 kts 277°
2026-05-01 14:08 47.30435 7.63392 18400 ft 389 kts 282°
2026-05-01 14:08 47.31184 7.59555 18912 ft 392 kts 288°
2026-05-01 14:09 47.32031 7.55728 19382 ft 395 kts 288°
2026-05-01 14:09 47.32874 7.51870 19893 ft 397 kts 288°
2026-05-01 14:09 47.33718 7.47981 20410 ft 399 kts 288°
2026-05-01 14:09 47.34563 7.44067 20919 ft 401 kts 288°
2026-05-01 14:10 47.35410 7.40144 21435 ft 403 kts 288°
2026-05-01 14:10 47.36262 7.36198 21970 ft 404 kts 288°
2026-05-01 14:10 47.37118 7.32234 22455 ft 407 kts 288°
2026-05-01 14:10 47.37979 7.28234 22888 ft 410 kts 288°
2026-05-01 14:11 47.38842 7.24207 23367 ft 413 kts 288°
2026-05-01 14:11 47.40575 7.16065 24158 ft 418 kts 287°
2026-05-01 14:11 47.41245 7.11874 24542 ft 420 kts 283°
2026-05-01 14:12 47.41868 7.07647 24891 ft 422 kts 282°
2026-05-01 14:12 47.42495 7.03399 25221 ft 425 kts 282°
2026-05-01 14:12 47.43116 6.99186 25565 ft 427 kts 282°
2026-05-01 14:12 47.43744 6.94891 25895 ft 428 kts 282°
2026-05-01 14:13 47.44373 6.90575 26201 ft 431 kts 282°
2026-05-01 14:13 47.44797 6.87650 26404 ft 433 kts 282°
2026-05-01 14:13 47.45628 6.81884 26862 ft 435 kts 282°
2026-05-01 14:13 47.46342 6.77539 27193 ft 436 kts 289°
2026-05-01 14:14 47.47610 6.73475 27514 ft 437 kts 302°
2026-05-01 14:14 47.49463 6.69918 27821 ft 438 kts 315°
2026-05-01 14:14 47.51815 6.67033 28089 ft 441 kts 327°
2026-05-01 14:14 47.54561 6.64996 28324 ft 444 kts 341°
2026-05-01 14:15 47.57566 6.63927 28584 ft 446 kts 353°
2026-05-01 14:15 47.60644 6.63329 28856 ft 448 kts 353°
2026-05-01 14:15 47.63741 6.62721 29156 ft 449 kts 353°
2026-05-01 14:15 47.66845 6.62099 29448 ft 451 kts 352°
2026-05-01 14:16 47.69961 6.61465 29689 ft 453 kts 352°
2026-05-01 14:16 47.73087 6.60826 29970 ft 454 kts 352°
2026-05-01 14:16 47.76224 6.60184 30222 ft 456 kts 352°
2026-05-01 14:16 47.79373 6.59541 30430 ft 458 kts 352°
2026-05-01 14:17 47.82534 6.58899 30623 ft 459 kts 352°
2026-05-01 14:17 47.85706 6.58256 30802 ft 461 kts 352°
2026-05-01 14:17 47.88890 6.57612 31023 ft 461 kts 352°
2026-05-01 14:17 47.92068 6.56969 31322 ft 460 kts 352°
2026-05-01 14:18 47.95237 6.56300 31584 ft 460 kts 351°
2026-05-01 14:18 47.98393 6.55569 31835 ft 460 kts 351°
2026-05-01 14:18 48.01547 6.54799 32112 ft 459 kts 350°
2026-05-01 14:18 48.03635 6.54281 32282 ft 459 kts 350°
2026-05-01 14:19 48.07797 6.53246 32656 ft 457 kts 350°
2026-05-01 14:19 48.10933 6.52475 32932 ft 456 kts 350°
2026-05-01 14:19 48.14071 6.51709 33207 ft 456 kts 350°
2026-05-01 14:19 48.17193 6.50953 33463 ft 455 kts 351°
2026-05-01 14:20 48.20321 6.50204 33708 ft 455 kts 351°
2026-05-01 14:20 48.26573 6.48710 34209 ft 454 kts 350°
2026-05-01 14:20 48.29690 6.47961 34464 ft 453 kts 350°
2026-05-01 14:21 48.32800 6.47207 34702 ft 452 kts 350°
2026-05-01 14:21 48.35905 6.46452 34919 ft 452 kts 350°
2026-05-01 14:21 48.39006 6.45695 35096 ft 452 kts 350°
2026-05-01 14:22 48.45229 6.44175 35396 ft 454 kts 350°
2026-05-01 14:22 48.48348 6.43416 35589 ft 454 kts 351°
2026-05-01 14:22 48.51461 6.42662 35788 ft 453 kts 351°
2026-05-01 14:22 48.54568 6.41909 35975 ft 452 kts 351°
2026-05-01 14:23 48.57670 6.41156 36162 ft 451 kts 351°
2026-05-01 14:23 48.60768 6.40402 36243 ft 451 kts 351°
2026-05-01 14:23 48.66977 6.39305 36249 ft 449 kts
2026-05-01 14:24 48.73211 6.39871 36249 ft 449 kts
2026-05-01 14:24 48.79449 6.40516 36253 ft 449 kts
2026-05-01 14:25 48.85690 6.41155 36273 ft 450 kts
2026-05-01 14:25 48.91933 6.41794 36280 ft 450 kts
2026-05-01 14:26 49.01260 6.42729 36276 ft 450 kts
2026-05-01 14:27 49.07502 6.43352 36275 ft 450 kts
2026-05-01 14:27 49.13726 6.42778 36271 ft 449 kts 346°
2026-05-01 14:28 49.22770 6.39088 36272 ft 449 kts 344°
2026-05-01 14:28 49.28801 6.36614 36275 ft 448 kts 344°
2026-05-01 14:29 49.34830 6.34135 36274 ft 448 kts 344°
2026-05-01 14:30 49.46862 6.29152 36283 ft 447 kts 345°
2026-05-01 14:31 49.55447 6.23758 36268 ft 447 kts 331°
2026-05-01 14:31 49.60940 6.19275 36265 ft 447 kts 331°
2026-05-01 14:32 49.66440 6.14794 36273 ft 447 kts 331°
2026-05-01 14:32 49.71948 6.10301 36270 ft 448 kts 332°
2026-05-01 14:33 49.77449 6.05792 36277 ft 448 kts 331°
2026-05-01 14:33 49.82947 6.01268 36282 ft 447 kts 331°
2026-05-01 14:34 49.88403 5.96771 36280 ft 447 kts 331°
2026-05-01 14:34 49.93914 5.92208 36278 ft 446 kts 330°
2026-05-01 14:35 49.99394 5.87660 36257 ft 447 kts 330°
2026-05-01 14:35 50.03960 5.83873 36246 ft 448 kts 330°
2026-05-01 14:36 50.09886 5.77552 36254 ft 444 kts 314°
2026-05-01 14:36 50.14324 5.70862 36258 ft 444 kts 314°
2026-05-01 14:37 50.18047 5.65262 36250 ft 444 kts 314°
2026-05-01 14:37 50.22488 5.58548 36247 ft 444 kts 315°
2026-05-01 14:38 50.26894 5.51866 36257 ft 444 kts 315°
2026-05-01 14:38 50.31328 5.45127 36243 ft 444 kts 315°
2026-05-01 14:39 50.35762 5.38380 36243 ft 445 kts 315°
2026-05-01 14:39 50.40190 5.31623 36235 ft 445 kts 314°
2026-05-01 14:40 50.44619 5.24837 36238 ft 445 kts 314°
2026-05-01 14:40 50.49043 5.18031 36234 ft 445 kts 314°
2026-05-01 14:41 50.53467 5.11207 36235 ft 446 kts 314°
2026-05-01 14:41 50.57886 5.04382 36235 ft 446 kts 314°
2026-05-01 14:42 50.62315 4.97538 36235 ft 446 kts 314°
2026-05-01 14:42 50.66735 4.90669 36234 ft 446 kts 314°
2026-05-01 14:43 50.71146 4.83777 36235 ft 446 kts 314°
2026-05-01 14:43 50.75564 4.76883 36234 ft 446 kts 314°
2026-05-01 14:44 50.79978 4.69983 36236 ft 446 kts 314°
2026-05-01 14:44 50.86575 4.59603 36239 ft 447 kts 314°
2026-05-01 14:45 50.93976 4.50709 36231 ft 449 kts 332°
2026-05-01 14:46 50.99520 4.46117 36229 ft 449 kts 331°
2026-05-01 14:46 51.07818 4.39171 36229 ft 450 kts 331°
2026-05-01 14:47 51.13355 4.34524 36232 ft 450 kts 331°
2026-05-01 14:48 51.21664 4.27543 36230 ft 450 kts 331°
2026-05-01 14:48 51.29967 4.20534 36227 ft 450 kts 331°
2026-05-01 14:49 51.40976 4.11200 36213 ft 449 kts 331°
2026-05-01 14:50 51.52596 4.04100 36207 ft 450 kts 352°
2026-05-01 14:51 51.61876 4.02119 36211 ft 450 kts 352°
2026-05-01 14:52 51.71196 4.00107 36215 ft 450 kts 352°
2026-05-01 14:53 51.80472 3.98092 36220 ft 450 kts 351°
2026-05-01 14:53 51.86681 3.96751 36222 ft 449 kts 351°
2026-05-01 14:54 51.92894 3.95394 36219 ft 449 kts 351°
2026-05-01 14:54 51.99090 3.94040 36223 ft 449 kts 351°
2026-05-01 14:55 52.05253 3.92694 36228 ft 449 kts 351°
2026-05-01 14:55 52.11463 3.91335 36222 ft 449 kts 351°
2026-05-01 14:56 52.17635 3.89977 36214 ft 450 kts 351°
2026-05-01 14:56 52.23865 3.88599 36217 ft 450 kts 351°
2026-05-01 14:57 52.30102 3.87221 36220 ft 451 kts 351°
2026-05-01 14:57 52.39415 3.85100 36226 ft 451 kts 350°
2026-05-01 14:58 52.45574 3.83397 36227 ft 451 kts 348°
2026-05-01 14:58 52.51743 3.81564 36231 ft 450 kts 348°
2026-05-01 14:59 52.57936 3.79775 36232 ft 450 kts 349°
2026-05-01 14:59 52.64079 3.78042 36232 ft 450 kts 349°
2026-05-01 15:00 52.73357 3.75424 36235 ft 450 kts 349°
2026-05-01 15:01 52.79505 3.73690 36236 ft 451 kts 349°
2026-05-01 15:01 52.85704 3.71919 36238 ft 450 kts 349°
2026-05-01 15:02 52.91859 3.70164 36238 ft 450 kts 349°
2026-05-01 15:02 52.98061 3.68394 36240 ft 450 kts 349°
2026-05-01 15:03 53.04210 3.66633 36239 ft 450 kts 348°
2026-05-01 15:03 53.10399 3.64842 36246 ft 450 kts 348°
2026-05-01 15:04 53.16573 3.63051 36244 ft 450 kts 348°
2026-05-01 15:04 53.22726 3.61265 36243 ft 450 kts 348°
2026-05-01 15:05 53.28914 3.59466 36246 ft 450 kts 348°
2026-05-01 15:05 53.35094 3.57667 36238 ft 451 kts 348°
2026-05-01 15:06 53.41252 3.55868 36224 ft 453 kts 349°
2026-05-01 15:06 53.47499 3.54353 36216 ft 454 kts 351°
2026-05-01 15:07 53.53782 3.53051 36234 ft 455 kts 351°
2026-05-01 15:07 53.60058 3.51665 36234 ft 455 kts 347°
2026-05-01 15:08 53.66151 3.48896 36235 ft 454 kts 342°
2026-05-01 15:08 53.72229 3.45998 36240 ft 454 kts 342°
2026-05-01 15:09 53.78314 3.43116 36241 ft 454 kts 342°
2026-05-01 15:09 53.84398 3.40220 36238 ft 454 kts 342°
2026-05-01 15:10 53.90481 3.37308 36232 ft 454 kts 342°
2026-05-01 15:10 53.99601 3.32939 36231 ft 454 kts 342°
2026-05-01 15:11 54.08720 3.28537 36231 ft 454 kts 342°
2026-05-01 15:12 54.14758 3.25609 36229 ft 454 kts 342°
2026-05-01 15:12 54.23874 3.21190 36235 ft 454 kts 342°
2026-05-01 15:14 54.39094 3.13739 36222 ft 456 kts 341°
2026-05-01 15:14 54.48243 3.09253 36221 ft 456 kts 341°
2026-05-01 15:15 54.60444 3.03196 36221 ft 456 kts 341°
2026-05-01 15:16 54.72639 2.97138 36219 ft 456 kts 341°
2026-05-01 15:18 54.87856 2.89504 36213 ft 455 kts 341°
2026-05-01 15:19 54.99987 2.83380 36221 ft 455 kts 341°
2026-05-01 15:19 55.09115 2.78748 36214 ft 455 kts 341°
2026-05-01 15:20 55.18245 2.74092 36219 ft 456 kts 341°
2026-05-01 15:21 55.24338 2.70961 36215 ft 457 kts 340°
2026-05-01 15:21 55.30443 2.67826 36206 ft 457 kts 340°
2026-05-01 15:22 55.39602 2.63107 36193 ft 458 kts 340°
2026-05-01 15:22 55.45715 2.59945 36193 ft 458 kts 340°
2026-05-01 15:23 55.51826 2.56768 36201 ft 458 kts 340°
2026-05-01 15:23 55.57935 2.53585 36202 ft 457 kts 340°
2026-05-01 15:24 55.64040 2.50392 36201 ft 457 kts 340°
2026-05-01 15:24 55.70137 2.47193 36198 ft 457 kts 340°
2026-05-01 15:25 55.75211 2.44519 36193 ft 457 kts 340°
2026-05-01 15:25 55.81311 2.41296 36201 ft 457 kts 340°
2026-05-01 15:26 55.88370 2.37474 36199 ft 455 kts 335°
2026-05-01 15:26 55.93201 2.33693 36195 ft 452 kts 332°
2026-05-01 15:27 55.98922 2.29036 36196 ft 452 kts 332°
2026-05-01 15:28 56.07477 2.22037 36192 ft 453 kts 331°
2026-05-01 15:28 56.13215 2.17326 36174 ft 454 kts 331°
2026-05-01 15:29 56.21838 2.10242 36187 ft 455 kts 331°
2026-05-01 15:30 56.33334 2.00713 36186 ft 455 kts 331°
2026-05-01 15:31 56.50540 1.86339 36172 ft 454 kts 331°
2026-05-01 15:32 56.61983 1.76675 36176 ft 453 kts 330°
2026-05-01 15:34 56.79130 1.62107 36163 ft 453 kts 330°